Weather History for Bloomington, IN

Change the Weather History Date:

Saturday, September 14, 2013

  Actual Average Record
Temperature  
Mean Temperature 56 °F 66 °F  
Max Temperature 70 °F 79 °F 89 °F (1998)
Min Temperature 42 °F 54 °F 42 °F (1996)
Degree Days  
Heating Degree Days 9 2  
Month to date heating degree days 14 12  
Since 1 July heating degree days 28 19  
Cooling Degree Days 0 3  
Month to date cooling degree days 114 65  
Year to date cooling degree days 955 882  
Growing Degree Days 6 (Base 50)    
Moisture  
Dew Point 45 °F    
Average Humidity 70    
Maximum Humidity 100    
Minimum Humidity 39    
Precipitation  
Precipitation 0.00 in 0.11 in 0.22 in (2011)
Month to date precipitation 0.43 1.55  
Year to date precipitation 30.75 34.74  
Sea Level Pressure  
Sea Level Pressure 30.14 in    
Wind  
Wind Speed 3 mph (East)    
Max Wind Speed 10 mph    
Max Gust Speed 14 mph    
Visibility 10 miles    
Events      
T = Trace of Precipitation, MM = Missing Value Source: NWS Daily Summary

Daily Weather History Graph

Daily Weather History Graph

Search for Another Location

Airport:

Trip Planner

Search our weather history database for the weather conditions in past years. The results will help you decide how hot, cold, wet, or windy it might be!

Date:

Astronomy

Sep. 14, 2013 Rise Set
Actual Time 7:27 AM EDT 7:56 PM EDT
Civil Twilight 7:00 AM EDT 8:22 PM EDT
Nautical Twilight 6:28 AM EDT 8:54 PM EDT
Astronomical Twilight 5:56 AM EDT 9:26 PM EDT
Moon 4:35 PM EDT (9/14) 2:00 AM EDT (9/14)
Length of Visible Light 13h 22m
Length of Day
12h 28m
Waxing Gibbous, 72% of the Moon is Illuminated
Sep 14
Waxing Gibbous
Sep 19
Full
Sep 26
Last Quarter
Oct 4
New
Oct 11
First Quarter

Hourly Weather History & Observations

Time (EDT) Temp. Windchill Dew Point Humidity Pressure Visibility Wind Dir Wind Speed Gust Speed Precip Events Conditions
12:53 AM 50.0 °F - 45.0 °F 83% 30.11 in 10.0 mi Calm Calm - N/A   Clear
1:53 AM 46.0 °F 43.9 °F 44.1 °F 93% 30.12 in 10.0 mi North 4.6 mph - N/A   Clear
2:53 AM 50.0 °F - 44.1 °F 80% 30.13 in 10.0 mi NE 3.5 mph - N/A   Clear
3:53 AM 50.0 °F - 43.0 °F 77% 30.12 in 10.0 mi ENE 5.8 mph - N/A   Clear
4:53 AM 46.9 °F - 42.1 °F 83% 30.12 in 10.0 mi Calm Calm - N/A   Clear
5:53 AM 46.9 °F - 42.1 °F 83% 30.13 in 10.0 mi Calm Calm - N/A   Clear
6:53 AM 44.1 °F - 42.1 °F 93% 30.14 in 10.0 mi Calm Calm - N/A   Clear
7:53 AM 44.1 °F - 42.1 °F 93% 30.16 in 10.0 mi Calm Calm - N/A   Clear
8:53 AM 51.1 °F - 44.1 °F 77% 30.17 in 10.0 mi East 3.5 mph - N/A   Clear
9:53 AM 54.0 °F - 45.0 °F 72% 30.19 in 10.0 mi SE 5.8 mph - N/A   Clear
10:53 AM 57.9 °F - 46.0 °F 65% 30.20 in 10.0 mi SE 6.9 mph - N/A   Clear
11:53 AM 61.0 °F - 46.0 °F 58% 30.19 in 10.0 mi Variable 4.6 mph - N/A   Clear
12:53 PM 63.0 °F - 46.0 °F 54% 30.18 in 10.0 mi ESE 6.9 mph - N/A   Clear
1:53 PM 66.0 °F - 45.0 °F 47% 30.16 in 10.0 mi Variable 5.8 mph - N/A   Clear
2:53 PM 66.9 °F - 44.1 °F 44% 30.14 in 10.0 mi Variable 3.5 mph - N/A   Clear
3:53 PM 69.1 °F - 44.1 °F 40% 30.12 in 10.0 mi Variable 4.6 mph - N/A   Clear
4:53 PM 69.1 °F - 44.1 °F 40% 30.11 in 10.0 mi Variable 5.8 mph - N/A   Clear
5:53 PM 69.1 °F - 44.1 °F 40% 30.10 in 10.0 mi SSW 4.6 mph - N/A   Clear
6:53 PM 68.0 °F - 43.0 °F 40% 30.10 in 10.0 mi Calm Calm - N/A   Clear
7:53 PM 57.9 °F - 50.0 °F 75% 30.11 in 10.0 mi Calm Calm - N/A   Clear
8:53 PM 53.1 °F - 50.0 °F 89% 30.11 in 10.0 mi Calm Calm - N/A   Clear
9:53 PM 50.0 °F - 46.9 °F 89% 30.12 in 10.0 mi Calm Calm - N/A   Clear
10:53 PM 48.9 °F - 46.0 °F 90% 30.11 in 10.0 mi Calm Calm - N/A   Clear
11:53 PM 46.9 °F - 46.0 °F 97% 30.11 in 10.0 mi Calm Calm - N/A   Clear